Regional Weather Roundup
Issued by NWS

Home | Current Version | Previous Version | Text Only | Print | Product List | Glossary Off
Versions: 1 2 3 4 5 6 7 8 9 10 11 12 13 14 15 16 17 18 19 20 21 22 23 24 25 26 27 28 29 30 31 32 33 34 35 36 37 38 39 40 41 42 43 44 45 46 47 48 49 50

118
ASUS45 KPSR 172310
RWRAZ

ARIZONA HOURLY REGIONAL WEATHER ROUNDUP
NATIONAL WEATHER SERVICE PHOENIX AZ
400 PM MST TUE JAN 17 2017

NOTE: FAIR INDICATES FEW OR NO CLOUDS BELOW 12,000 FEET WITH NO
SIGNIFICANT WEATHER AND/OR OBSTRUCTIONS TO VISIBILITY.

AZZ001>003-036-180000-
NORTHWEST ARIZONA

CITY           SKY/WX    TMP DP  RH WIND       PRES   REMARKS
BULLHEAD CITY  SUNNY     61  18  18 N20G28    30.08F
KINGMAN        SUNNY     53  18  25 NE9       30.09F
$$

AZZ004>008-015-016-018-180000-
NORTH CENTRAL ARIZONA

CITY           SKY/WX    TMP DP  RH WIND       PRES   REMARKS
GRAND CANYON   SUNNY     41  28  60 NE12      30.13R
WILLIAMS       CLOUDY    45  27  49 VRB5      30.10S
PRESCOTT       PTSUNNY   50  28  42 VRB3      30.09R
FLAGSTAFF      CLOUDY    37  28  70 E6        30.11S WCI  32
PAYSON         CLOUDY    48  30  49 CALM      30.11F
PAGE           SUNNY     47  22  37 CALM      30.14S
$$

AZZ009>014-017-180000-
NORTHEAST ARIZONA

CITY           SKY/WX    TMP DP  RH WIND       PRES   REMARKS
WINSLOW        MOSUNNY   47  34  60 NW6       30.11F
SAINT JOHNS    CLOUDY    47  32  56 N5        30.08R
SHOW LOW       PTSUNNY   36  32  87 E7        30.12R WCI  30
$$

AZZ023-180000-
GREATER PHOENIX AREA

CITY           SKY/WX    TMP DP  RH WIND       PRES   REMARKS
PHOENIX        PTSUNNY   62  41  46 VRB3      30.02S
BUCKEYE        MOSUNNY   61  41  48 W3        30.05S
GLENDALE       PTSUNNY   64  39  39 CALM      30.05S
LUKE AFB       SUNNY     64  40  40 W3        30.02F
DEER VALLEY    MOSUNNY   62  39  42 SW5       30.02F
SCOTTSDALE     MOSUNNY   62  40  44 NW5       30.04S
MESA-FALCON    MOSUNNY  N/A N/A N/A NW8       30.00F
MESA-GATEWAY   PTSUNNY   61  43  51 N8        30.03F
CHANDLER       PTSUNNY   63  41  45 MISG      30.03F
$$

AZZ027-028-180000-
SOUTHWEST MARICOPA COUNTY AND PINAL COUNTY

CITY           SKY/WX    TMP DP  RH WIND       PRES   REMARKS
CASA GRANDE    PTSUNNY   60  43  53 NW7       30.04S
$$

AZZ503-504-507>509-180000-
SOUTHEAST ARIZONA

CITY           SKY/WX    TMP DP  RH WIND       PRES   REMARKS
TUCSON         SUNNY     63  40  42 NW6       30.03R
DAVIS-MONTHAN  MOSUNNY   61  38  41 NW12      30.02R
RYAN FIELD     SUNNY     61  41  48 NW8       30.03S
NOGALES        CLOUDY    52  35  52 W14       30.03R
SIERRA VISTA   CLOUDY    54  30  40 SW8       30.05R
DOUGLAS        MOSUNNY   55  33  43 S6        30.04R
SAFFORD        MOSUNNY   59  37  44 S6        30.02F
$$

AZZ020-021-025-026-031-180000-
SOUTHWEST ARIZONA

CITY           SKY/WX    TMP DP  RH WIND       PRES   REMARKS
YUMA           MOSUNNY   67  29  24 N10       30.05S
$$

CAZ031-033-041-043-047-048-061-180000-
SOUTHERN CALIFORNIA

CITY           SKY/WX    TMP DP  RH WIND       PRES   REMARKS
DOWNTOWN L.A.  SUNNY     66  40  38 W9        30.08S
L.A. AIRPORT   MOSUNNY   61  48  62 W10       30.09S
SAN DIEGO      PTSUNNY   62  51  67 NW14      30.10R
BURBANK        SUNNY     64  34  32 S8        30.07S
ONTARIO        MOSUNNY   64  36  35 W8        30.07S
RIVERSIDE      SUNNY     67  31  26 W6        30.07R
PALM SPRINGS   SUNNY     69  24  18 VRB5      30.07S
EL CENTRO NAS  MOSUNNY   67  23  19 CALM      30.08S
IMPERIAL       SUNNY     67  30  25 N3        30.06S
BLYTHE         SUNNY     66  24  20 N9        30.07S
NEEDLES        SUNNY     64  22  20 N16       30.08F
$$

NVZ020-UTZ003-180000-
SOUTHERN NEVADA-UTAH

CITY           SKY/WX    TMP DP  RH WIND       PRES   REMARKS
LAS VEGAS      SUNNY     55  13  18 NE5       30.11F
SALT LAKE CITY MOSUNNY   30  21  69 NW7       30.24S WCI  23
$$

NMZ009-TXZ055-180000-
NEW MEXICO-WEST TEXAS

CITY           SKY/WX    TMP DP  RH WIND       PRES   REMARKS
ALBUQUERQUE    PTSUNNY   49  33  54 W7        30.09S
EL PASO        CLOUDY    48  41  76 N10       30.07R
$$


........................KEY........................
SKY/WX - SKY CONDITION/WEATHER
TMP    - TEMPERATURE IN FAHRENHEIT
DP     - DEW POINT IN FAHRENHEIT
RH     - RELATIVE HUMIDITY IN PERCENT
WIND   - DIRECTION AND SPEED IN MILES PER HOUR (MPH)
VRB    - VARIABLE WIND DIRECTION
PRES   - MEAN SEA LEVEL PRESSURE IN INCHES OF MERCURY
         F - FALLING PRESSURE   R - RISING PRESSURE
         S - STEADY PRESSURE
VSB    - VISIBILITY IN MILES
HX     - HEAT INDEX IN FAHRENHEIT
WCI    - WIND CHILL INDEX IN FAHRENHEIT
TC     - TEMPERATURE IN CELSIUS WHICH IS ALSO KNOWN AS
         TEMPERATURE IN CENTIGRADE
AFB    - AIR FORCE BASE
         LUKE AFB IS LUKE AIR FORCE BASE
         DAVIS-MONTHAN IS DAVIS-MONTHAN AIR FORCE BASE
NAS    - NAVAL AIR STATION
         EL CENTRO NAS IS EL CENTRO NAVAL AIR STATION
N/A    - NOT AVAILABLE





USA.gov is the U.S. government's official web portal to all federal, state and local government web resources and services.